#timestamp,LO_Frequency,Hit,StdDev 
1507662015.2,286047001.0,N
1507662035.9,286046999.9,N
1507662055.7,286047000.0,N
1507662075.6,286046998.4,N
1507662095.4,286046999.8,N
1507662115.2,286047000.6,N
1507662135.1,286047007.4,Y
1507662136.0,286047007.4,P
1507662155.8,286047011.8,N
1507662175.6,286047013.9,N
1507662195.5,286047017.6,N
1507662215.3,286047021.6,Y
1507662235.1,286047011.4,P
1507662255.9,286047015.9,P
1507662275.7,286047016.0,P
1507662295.5,286047018.6,Y
1507662315.4,286047005.2,P
1507662335.2,286047005.0,N
1507662355.0,286047000.9,N
1507662355.9,286047000.9,N
1507662375.8,286047004.3,N
1507662395.6,286047005.1,N
1507662415.4,286047003.4,N
1507662435.3,286047004.0,N
1507662455.1,286047004.9,N
1507662456.0,286047004.9,N
1507662475.8,286047006.0,N
1507662495.6,286047004.2,N
1507662515.5,286047007.1,N
1507662535.3,286047005.1,N
1507662555.1,286047004.2,N
1507662575.9,286047008.7,Y
1507662595.7,286047005.1,P
1507662615.5,286047001.9,P
1507662635.4,286047004.0,N
1507662655.2,286047006.0,Y
1507662675.0,286046998.6,P
1507662675.9,286046998.6,N
1507662695.8,286046998.1,N
1507662715.6,286046997.2,N
1507662735.4,286046996.4,N
1507662755.3,286046993.8,N
1507662775.1,286046996.4,N
1507662776.0,286046996.4,N
1507662795.8,286046994.1,N
1507662815.7,286046990.6,Y
1507662835.5,286046996.6,P
1507662855.3,286046997.7,P
1507662875.2,286046994.1,P
1507662895.9,286046990.5,Y
1507662915.7,286046991.7,P
1507662935.6,286046992.0,P
1507662955.4,286046988.6,P
1507662975.2,286046986.9,Y
1507662995.1,286046995.4,P
1507662996.0,286046995.4,N
1507663015.8,286046993.7,P
1507663035.6,286046994.0,Y
1507663055.5,286047000.5,P
1507663075.3,286046998.7,N
1507663095.1,286046996.7,N
1507663115.9,286046997.8,N
1507663135.7,286046997.0,N
1507663155.5,286046997.3,N
1507663175.4,286046999.2,N
1507663195.2,286046996.9,N
1507663215.0,286046994.9,Y
1507663215.9,286046994.9,P
1507663235.8,286046997.4,N
1507663255.6,286046997.9,N
1507663275.4,286046999.2,N
1507663295.3,286046996.6,N
1507663315.1,286046997.2,N
1507663316.0,286046997.2,N
1507663335.8,286047001.2,N
1507663355.7,286046998.5,N
1507663375.5,286047002.5,N
1507663395.3,286047002.1,N
1507663415.2,286047000.7,N
1507663435.9,286046999.4,N
1507663455.7,286046999.2,N
1507663475.5,286047001.2,N
1507663495.4,286046999.0,N
1507663515.2,286047001.0,N
1507663535.0,286046998.4,N
1507663535.9,286046998.4,N
1507663555.8,286046999.9,N
1507663575.6,286046998.1,N
1507663595.4,286047000.9,N
1507663615.3,286047002.3,N
1507663635.1,286046999.7,N
1507663636.0,286046999.7,N
1507663655.8,286047004.2,N
1507663675.7,286047003.5,N
1507663695.5,286047002.8,N
1507663715.3,286046999.8,N
1507663735.2,286047000.3,N
1507663755.9,286047000.6,N
1507663775.7,286046999.1,N
1507663795.6,286046998.2,N
1507663815.4,286047000.9,N
1507663835.2,286047001.7,N
1507663855.0,286046998.4,N
1507663855.9,286046998.4,N
1507663875.8,286047000.2,N
1507663895.6,286047000.4,N
1507663915.4,286047002.7,N
1507663935.3,286047002.1,N
1507663955.1,286047000.1,N
1507663975.8,286047001.1,N
1507663995.7,286047000.0,N
1507664015.5,286047000.2,N
1507664035.3,286047002.4,N
1507664055.2,286047000.2,N
1507664075.9,286046999.0,N
1507664095.7,286046998.5,N
1507664115.6,286046999.3,N
1507664135.4,286046997.4,N
1507664155.2,286046998.9,N
1507664175.0,286047000.8,N
1507664176.0,286047000.8,N
1507664195.8,286046999.9,N
1507664215.6,286046999.8,N
1507664235.4,286047001.4,N
1507664255.3,286047004.0,N
1507664275.1,286047003.2,N
1507664295.8,286047006.0,Y
1507664315.7,286047001.5,P
1507664335.5,286046999.8,N
1507664355.3,286047000.6,N
1507664375.2,286047002.0,Y
1507664395.0,286047000.2,P
1507664395.9,286047000.2,N
1507664415.7,286046998.9,P
1507664435.6,286046990.1,Y
1507664455.4,286046992.8,P
1507664475.2,286046997.8,N
1507664495.1,286047001.6,N
1507664496.0,286047001.6,N
1507664515.8,286047007.2,N
1507664535.6,286047006.5,N
1507664555.5,286047004.9,N
1507664575.3,286047012.0,N
1507664595.1,286047012.7,N
1507664615.9,286047018.6,Y
1507664635.7,286047011.8,P
1507664655.5,286047017.6,P
1507664675.4,286047017.4,P
1507664695.2,286047012.5,N
1507664715.0,286047016.6,Y
1507664715.9,286047016.6,P
1507664735.8,286047005.6,N
1507664755.6,286047005.9,N
1507664775.4,286047001.6,N
1507664795.3,286047001.5,N
1507664815.1,286047003.6,N
1507664835.8,286047003.7,N
1507664855.7,286047001.6,N
1507664875.5,286047001.7,N
1507664895.3,286047005.6,N
1507664915.2,286047005.0,N
1507664935.9,286047002.1,N
1507664955.7,286047002.5,N
1507664975.6,286047003.1,N
1507664995.4,286047003.7,N
1507665015.2,286047005.8,N
1507665035.0,286047006.7,N
1507665035.9,286047006.7,N
1507665055.8,286047003.7,N
1507665075.6,286047005.8,N
1507665095.4,286047005.7,N
1507665115.3,286047002.5,N
1507665135.1,286047001.5,N
1507665155.8,286046999.0,N
1507665175.7,286046999.6,N
1507665195.5,286046996.0,N
1507665215.3,286046994.1,N
1507665235.2,286046990.4,N
1507665255.9,286046988.0,N
1507665275.7,286046987.3,N
1507665295.5,286046989.9,N
1507665315.4,286046985.5,N
1507665335.2,286046991.6,N
1507665355.0,286046985.7,N
1507665355.9,286046985.7,N
1507665375.8,286046983.7,N
1507665395.6,286046980.6,N
1507665415.4,286046983.5,N
1507665435.3,286046984.8,N
1507665455.1,286046983.3,N
1507665475.8,286046984.9,N
1507665495.7,286046985.6,N
1507665515.5,286046984.0,N
1507665535.3,286046984.5,N
1507665555.2,286046984.1,N
1507665575.9,286046982.2,N
1507665595.7,286046982.4,N
